Weather History for Oklahoma City, OK

Change the Weather History Date:

Monday, May 27, 2013

  Actual Average Record
Temperature  
Mean Temperature 76 °F 73 °F  
Max Temperature 81 °F 83 °F 96 °F (1927)
Min Temperature 70 °F 63 °F 42 °F (1907)
Cooling Degree Days 11 8  
Month to date cooling degree days 106 148  
Year to date cooling degree days 134 214  
Growing Degree Days 26 (Base 50)    
Moisture  
Dew Point 67 °F    
Average Humidity 79    
Maximum Humidity 90    
Minimum Humidity 67    
Precipitation  
Precipitation 0.00 in 0.16 in 5.38 in (1987)
Month to date precipitation 7.93 3.99  
Year to date precipitation 20.45 13.09  
Sea Level Pressure  
Sea Level Pressure 29.78 in    
Wind  
Wind Speed 21 mph (South)    
Max Wind Speed 31 mph    
Max Gust Speed 40 mph    
Visibility 10 miles    
Events      
T = Trace of Precipitation, MM = Missing Value Source: NWS Daily Summary

Daily Weather History Graph

Daily Weather History Graph

Search for Another Location

Airport:

Trip Planner

Search our weather history database for the weather conditions in past years. The results will help you decide how hot, cold, wet, or windy it might be!

Date:

Astronomy

May. 27, 2013 Rise Set
Actual Time 6:18 AM CDT 8:37 PM CDT
Civil Twilight 5:49 AM CDT 9:06 PM CDT
Nautical Twilight 5:13 AM CDT 9:42 PM CDT
Astronomical Twilight 4:34 AM CDT 10:21 PM CDT
Moon 11:20 PM CDT 8:55 AM CDT
Length of Visible Light 15h 16m
Length of Day
14h 18m
Waning Gibbous, 91% of the Moon is Illuminated
May 27
Waning Gibbous
May 31
Last Quarter
Jun 8
New
Jun 16
First Quarter
Jun 23
Full

Hourly Weather History & Observations

Time (CDT) Temp. Heat Index Dew Point Humidity Pressure Visibility Wind Dir Wind Speed Gust Speed Precip Events Conditions
12:52 AM 73.0 °F - 69.1 °F 87% 29.87 in 9.0 mi SSE 15.0 mph - N/A   Mostly Cloudy
1:52 AM 73.0 °F - 69.1 °F 87% 29.83 in 10.0 mi South 17.3 mph 27.6 mph N/A   Mostly Cloudy
2:52 AM 72.0 °F - 68.0 °F 87% 29.81 in 10.0 mi South 17.3 mph 25.3 mph N/A   Scattered Clouds
3:52 AM 72.0 °F - 68.0 °F 87% 29.81 in 10.0 mi South 15.0 mph - N/A   Mostly Cloudy
4:52 AM 72.0 °F - 66.9 °F 84% 29.81 in 10.0 mi South 13.8 mph 21.9 mph N/A   Scattered Clouds
5:52 AM 70.0 °F - 66.9 °F 90% 29.82 in 10.0 mi South 11.5 mph - N/A   Scattered Clouds
6:12 AM 71.6 °F - 66.2 °F 83% 29.86 in 10.0 mi South 13.8 mph - N/A   Mostly Cloudy
6:52 AM 71.1 °F - 66.9 °F 87% 29.83 in 10.0 mi South 16.1 mph - N/A   Mostly Cloudy
7:52 AM 72.0 °F - 66.9 °F 84% 29.83 in 10.0 mi South 15.0 mph 24.2 mph N/A   Overcast
8:52 AM 73.0 °F - 66.9 °F 81% 29.82 in 10.0 mi South 23.0 mph 32.2 mph N/A   Overcast
9:52 AM 73.0 °F - 66.0 °F 79% 29.84 in 10.0 mi South 23.0 mph 28.8 mph N/A   Overcast
10:52 AM 73.0 °F - 66.0 °F 79% 29.83 in 10.0 mi South 21.9 mph 36.8 mph N/A   Overcast
11:52 AM 75.0 °F - 66.9 °F 76% 29.82 in 10.0 mi South 24.2 mph 33.4 mph N/A   Overcast
12:52 PM 77.0 °F - 68.0 °F 74% 29.80 in 10.0 mi South 25.3 mph 32.2 mph N/A   Overcast
1:52 PM 79.0 °F - 68.0 °F 69% 29.77 in 10.0 mi South 28.8 mph 36.8 mph N/A   Mostly Cloudy
2:52 PM 78.1 °F - 68.0 °F 71% 29.77 in 10.0 mi South 23.0 mph 35.7 mph N/A   Overcast
3:52 PM 81.0 °F 83.8 °F 68.0 °F 65% 29.75 in 10.0 mi South 27.6 mph 39.1 mph N/A   Mostly Cloudy
4:52 PM 79.0 °F - 66.9 °F 66% 29.73 in 10.0 mi South 28.8 mph 35.7 mph N/A   Mostly Cloudy
5:52 PM 79.0 °F - 66.9 °F 66% 29.70 in 10.0 mi South 23.0 mph 36.8 mph N/A   Mostly Cloudy
6:52 PM 79.0 °F - 66.9 °F 66% 29.68 in 10.0 mi South 21.9 mph 35.7 mph N/A   Mostly Cloudy
7:52 PM 77.0 °F - 66.9 °F 71% 29.70 in 10.0 mi South 24.2 mph 32.2 mph N/A   Mostly Cloudy
8:52 PM 75.9 °F - 66.9 °F 74% 29.71 in 10.0 mi South 18.4 mph 28.8 mph N/A   Overcast
9:52 PM 75.9 °F - 66.9 °F 74% 29.71 in 10.0 mi South 17.3 mph 28.8 mph N/A   Overcast
10:52 PM 75.9 °F - 66.9 °F 74% 29.67 in 10.0 mi South 25.3 mph 36.8 mph N/A   Overcast
11:52 PM 75.9 °F - 66.9 °F 74% 29.67 in 10.0 mi South 21.9 mph 34.5 mph N/A   Overcast